Flag Weather past 2 weeks in Larvik, Norway

Now
32 °F

Partly cloudy.


Feels Like: 25 °F
Forecast: 35 / 38 °F
Wind: 8 mph from North

Location: Torp

Current Time: Nov 28, 2014 at 7:27:31 AM

Latest Report: Nov 28, 2014 at 6:50 AM


Visibility: N/A

Pressure: 30.33 "Hg

Humidity: 100%

Dew point: 32 °F

Location of LarvikLocation

Historic Weather in Larvik — Graph

°F

Larvik temperature yesterday

Maximum temperature yesterday: 32 °F (at 3:20 AM)
Minimum temperature yesterday: 30 °F (at 12:20 AM)
Average temperature yesterday: 32 °F

Past Weeks' High & Low Weather Summary

 TemperatureHumidityPressure
High48 °F (Nov 25, 1:50 PM)100% (Nov 13, 11:20 AM)30.48 "Hg (Nov 13, 11:20 AM)
Low28 °F (Nov 22, 6:20 AM)58% (Nov 25, 1:50 PM)29.65 "Hg (Nov 24, 7:20 AM)
Average38 °F92%30.20 "Hg
* Reported Nov 13 6:20 AM — Nov 28 6:20 AM, Larvik, Weather by CustomWeather, © 2014

Note: Actual official high and low records may vary slightly from our data, if they occured in-between our weather recording intervals... More about our weather records

Advertising

Larvik weather history for previous 24 hours

 ConditionsComfort  
Time TempWeatherWind HumidityBarometerVisibility
6:20 AM
Nov 28
32 °FPartly cloudy.8 mph100%30.30 "HgN/A
5:50 AM32 °FPartly cloudy.5 mph100%30.30 "HgN/A
5:20 AM32 °FMostly cloudy.6 mph100%30.30 "Hg6 mi
4:50 AM32 °FLow clouds.8 mph100%30.30 "Hg6 mi
4:20 AM32 °FLow clouds.7 mph100%30.30 "Hg6 mi
3:50 AM32 °FMostly cloudy.8 mph100%30.30 "Hg4 mi
3:20 AM32 °FMostly cloudy.6 mph100%30.30 "Hg4 mi
2:50 AM32 °FMostly cloudy.7 mph100%30.27 "Hg3 mi
2:20 AM32 °FMostly cloudy.8 mph100%30.27 "Hg4 mi
1:50 AM32 °FLow clouds.7 mph100%30.27 "Hg3 mi
1:20 AM32 °FMostly cloudy.6 mph100%30.27 "Hg4 mi
12:50 AM32 °FLow clouds.6 mph100%30.27 "Hg3 mi
12:20 AM32 °FLow clouds.5 mph100%30.27 "Hg4 mi
11:50 PM
Nov 27
32 °FPassing clouds.6 mph100%30.27 "Hg4 mi
11:20 PM32 °FPassing clouds.6 mph100%30.27 "Hg4 mi
10:50 PM32 °FLight snow. Passing clouds.7 mph100%30.24 "Hg2 mi
10:20 PM32 °FPartly cloudy.8 mph100%30.24 "Hg4 mi
9:50 PM32 °FLow clouds.7 mph100%30.24 "Hg4 mi
9:20 PM32 °FLow clouds.6 mph100%30.24 "Hg4 mi
8:50 PM32 °FLow clouds.7 mph100%30.24 "Hg4 mi
8:20 PM32 °FLow clouds.7 mph100%30.24 "Hg4 mi
7:50 PM32 °FLow clouds.7 mph100%30.24 "Hg4 mi
7:20 PM32 °FLow clouds.8 mph100%30.21 "Hg3 mi
6:50 PM32 °FLight snow. Low clouds.7 mph100%30.21 "Hg4 mi
6:20 PM32 °FLight snow. Low clouds.6 mph100%30.21 "Hg4 mi
5:50 PM32 °FLight snow. Mostly cloudy.6 mph100%30.21 "Hg3 mi
5:20 PM32 °FLight rain. Low clouds.7 mph100%30.21 "Hg4 mi
4:50 PM32 °FLight snow. Low clouds.8 mph100%30.21 "Hg2 mi
4:20 PM32 °FLight rain. Passing clouds.8 mph100%30.21 "Hg2 mi
3:50 PM32 °FLight snow. Low clouds.8 mph100%30.18 "Hg3 mi
3:20 PM32 °FLight snow. Low clouds.8 mph100%30.18 "Hg3 mi
2:50 PM32 °FLight rain. Mostly cloudy.7 mph93%30.18 "Hg3 mi
2:20 PM32 °FLight snow. Ice fog.7 mph93%30.18 "Hg1 mi
1:50 PM32 °FLight snow. Ice fog.8 mph93%30.18 "Hg2 mi
1:20 PM32 °FLight snow. Dense fog.8 mph93%30.21 "Hg1 mi
12:50 PM32 °FLight freezing rain. Low clouds.8 mph93%30.21 "Hg2 mi
12:20 PM32 °FLight freezing rain. Ice fog.7 mph93%30.21 "Hg2 mi
11:50 AM30 °FLight rain. Ice fog.7 mph100%30.21 "Hg2 mi
11:20 AM30 °FLight freezing rain. Mostly cloudy.7 mph100%30.21 "Hg2 mi
10:50 AM30 °FIce fog.8 mph100%30.21 "Hg3 mi
10:20 AM30 °FIce fog.9 mph100%30.21 "Hg3 mi
9:50 AM30 °FIce fog.9 mph100%30.21 "Hg3 mi
9:20 AM30 °FIce fog.8 mph100%30.21 "Hg3 mi
8:50 AM30 °FIce fog.8 mph100%30.21 "Hg3 mi
8:20 AM30 °FIce fog.7 mph100%30.18 "Hg2 mi
7:50 AM32 °FLight freezing rain. Ice fog.8 mph93%30.18 "Hg2 mi
7:20 AM32 °FLight freezing rain. Ice fog.8 mph93%30.18 "Hg2 mi
Weather by CustomWeather, © 2014

See weather overviewHow to use our weather pages